Find STEP Cube Lab II

NORAD ID: 52897 Int'l Des: 2022-065 Owner: CHOSU Country: KR operational
LEOCIRCULARRETROGRADESSO

Live Position

Loading 3D Globe...

About STEP Cube Lab II

Description loading...

Upcoming Passes

Passes for default location (London). Set your location on the main map for personalized predictions.

Altitude History

Loading altitude history...

Two-Line Element Set

1 52897U 22065D 26109.66971412 .00000651 00000-0 13568-3 0 9998
2 52897 98.2133 253.7817 0008064 200.1436 159.9449 14.63203957202944
Epoch: Apr 19, 2026 • Age: 4 hours

Current Status

Altitude 705.7 km
Velocity 7.50 km/s
Sub-Earth Point -70.57°S, 105.57°W
Launch Date Jun 21, 2022
Age 3.8 years
Type other

Technical Details

Classification Payload
Mass 10.00 kg
Dry Mass 10.00 kg
Total Mass 10.00 kg
Length 0.30 m
Diameter 0.20 m
Span 0.30 m
Shape Box
Manufacturer CHOSU
Bus Type Cubesat 6U
Phase Status In Orbit
Owner/State CHOSU/KR

Most Searched